User: anonymous   Login
Location: Bittelbronn
(48.4454°N, 8.5870°E)
Time: 23:15:49
(UTC+00:00)
Language:

ALOS - Orbit

View from above orbital plane
View from above orbital plane
View from above satellite
View from above satellite

Ground track
Ground track

The orbit data is extracted from the following two-line orbital elements,

1 28931U 06002A   24194.89051534  .00002887  00000-0  53576-3 0  9990
2 28931  98.0373 147.4038 0002555  78.0546 282.0944 14.65965843985113
Epoch (UTC): 12 July 2024 21:22:20
Eccentricity: 0.0002555
inclination: 98.0373°
perigee height: 672 km
apogee height: 676 km
right ascension of ascending node: 147.4038°
argument of perigee: 78.0546°
revolutions per day: 14.65965843
mean anomaly at epoch: 282.0944°
orbit number at epoch: 98511

The dashed part of the orbit path shows where the satellite is in the earth's shadow,  

DLR